CAPE
225 184 192 72 65 19 52 145 192 177 129 98 186 258 236 307 281 140 121 120 122 210 312 359 275 204 165 518 666 822 873 1436 902 753 607 550 520 521 560 528 615 721 577 520
72 117 12 13 5 47 130 226 276 152 187 140 305 501 285 313 507 496 479 353 262 206 288 397 530 455 345 316 597 968 1309 1584 1284 1014 1106 756 678 863 762 608 884 1070 1139 988
76 146 49 30 178 240 235 289 220 188 302 234 348 378 209 371 578 598 534 531 538 548 653 644 543 671 595 490 470 913 1470 1640 1650 1486 1060 1042 891 994 1021 950 805 1129 1295 1440
172 88 36 74 211 220 104 107 136 190 328 257 189 249 389 73 440 673 930 786 627 583 505 530 731 950 725 674 619 675 1232 1582 1537 1758 1556 1342 1057 1114 1179 1141 1135 1074 1076 1209
192 118 218 108 49 136 93 8 69 292 212 193 283 381 384 42 300 410 479 777 959 935 882 873 776 746 895 543 713 711 954 1243 1505 1731 1628 1693 1017 1373 1394 1128 1775 1826 1571 889
174 76 23 24 24 119 7 0 31 191 226 229 0 371 301 239 384 341 385 431 566 753 865 890 884 871 950 592 586 689 895 1407 1138 1453 1615 2003 1931 1647 1004 1600 1167 1002 923 993
75 0 4 8 14 2 0 0 0 0 18 7 0 240 429 275 144 313 501 561 593 546 757 943 1078 1132 1113 943 859 914 897 1031 994 1053 1305 1706 2015 1892 1653 1460 524 941 950 882
158 0 0 0 6 7 0 0 0 0 0 0 0 301 189 191 45 148 162 497 683 493 697 793 981 1357 1386 1218 1018 966 944 853 770 792 1084 1696 1739 1236 1150 752 762 323 341 949
78 0 0 0 0 0 2 0 0 0 0 0 0 0 0 26 147 129 260 429 638 347 873 1201 1233 1474 1591 1508 1436 1046 804 667 638 702 853 1164 1556 1604 1413 1189 916 648 706 633
152 32 0 0 0 0 0 0 0 0 0 0 0 0 0 70 13 221 347 505 723 491 1089 1515 1497 1276 1484 1647 1785 1660 1527 1644 1427 1119 1051 1061 1110 1154 1176 1248 1021 787 901 1058
144 83 1 0 0 0 0 0 0 0 0 0 0 0 0 0 0 0 54 432 583 548 1128 1557 1335 1575 1723 1836 1926 1911 1862 1962 1903 1630 1572 1501 1395 1104 965 922 865 795 824 912
142 13 0 0 0 0 0 0 0 0 0 0 0 0 0 0 0 0 0 2 181 210 1326 1571 1589 1873 2126 2129 2153 2236 2117 2030 1727 1259 1118 1095 1180 1326 1254 882 548 940 805 641
65 34 0 0 0 0 0 0 0 0 0 0 0 0 0 0 0 0 0 0 0 358 1577 1754 2009 2041 2215 2313 2305 2108 1985 1828 1270 766 687 673 640 712 555 654 520 452 474 583
0 0 0 0 0 0 0 0 0 0 0 0 0 0 0 0 0 0 0 43 246 881 1785 1909 2072 2019 2165 2192 2233 2133 1934 1698 1238 904 720 621 415 409 530 637 327 229 484 429
0 0 0 0 0 0 0 0 0 0 0 0 0 0 0 0 0 0 42 454 804 1355 1765 1862 1821 1862 1791 1771 1858 1916 1868 1708 1335 1092 923 688 396 297 936 513 398 741 543 273
0 0 0 0 0 0 0 0 0 0 0 0 0 0 0 0 0 78 376 931 1316 1716 1797 1748 1763 1746 1759 1817 1917 1861 1892 1850 1465 1190 1065 617 329 342 677 891 645 997 681 425
0 0 0 0 0 0 0 0 0 0 0 0 0 0 0 0 69 178 332 1070 1494 1669 1709 1836 1846 1938 2117 2147 2238 2049 2028 1742 1444 1160 1036 807 431 411 764 817 665 765 251 520
0 0 0 0 0 0 0 0 0 0 0 0 0 24 0 0 0 0 185 677 1251 1316 1343 1211 1373 1917 2208 2066 1975 1955 1714 1675 1444 1245 1187 1002 516 459 583 847 615 1040 616 480
0 0 0 0 0 0 0 0 0 3 40 0 0 23 100 177 246 413 335 368 712 826 841 1220 1587 1559 1756 1703 1906 1749 1692 1592 1492 1369 1104 1019 583 452 726 687 627 662 555 325
0 0 0 0 0 0 0 0 0 0 42 0 0 0 80 135 145 98 21 505 769 812 837 852 664 408 484 965 973 1219 1697 1873 1790 1633 1201 988 656 320 413 740 530 635 743 530
0 0 0 0 0 0 0 0 0 0 0 0 0 0 45 185 413 23 0 5 219 565 794 850 449 179 423 1145 1353 1771 2036 2099 1972 1785 1226 1040 809 494 450 619 333 531 633 736
22 71 17 0 0 0 0 0 0 0 0 0 0 0 0 26 190 183 364 104 108 155 166 213 304 616 1111 1413 1780 2012 2232 2568 1982 1661 1382 1137 936 758 546 530 464 190 393 695
0 0 22 0 0 0 0 0 0 0 0 0 0 0 0 0 0 4 35 119 102 76 175 230 296 474 817 1051 1556 1641 2542 2362 1907 1792 1663 1413 1172 942 654 436 459 289 232 105
0 0 0 0 0 0 0 0 0 0 0 0 0 0 0 0 0 2 33 65 89 135 192 195 361 632 833 1147 1201 1524 1964 2255 1840 2149 1989 1625 1369 701 689 393 355 275 302 296
0 0 0 0 0 0 0 0 0 0 0 0 0 0 0 0 10 10 44 244 339 338 317 219 500 871 1027 1282 1373 1430 1674 1996 1393 2051 1909 1544 1143 595 578 531 398 340 447 416
0 0 0 0 0 0 0 0 0 0 0 0 0 13 57 42 78 68 213 298 315 217 309 302 513 697 786 1001 1258 1879 1785 1760 1769 1720 667 643 978 707 748 557 485 106 117 70
CIN
-203 -126 -52 -86 -144 -33 -105 -85 -72 -93 -129 -124 -84 -99 -80 -150 -223 -203 -58 -90 -26 -25 -32 -32 -29 -49 -92 -196 -213 -212 -192 -145 -167 -166 -159 -156 -154 -133 -112 -113 -118 -109 -114 -101
-72 -72 -31 -37 -34 -163 -129 -86 -53 -102 -135 -131 -83 -47 -104 -190 -208 -195 -185 -180 -197 -88 -46 -68 -45 -48 -49 -34 -260 -242 -212 -183 -210 -185 -165 -162 -155 -124 -115 -119 -95 -92 -76 -78
-132 -62 -90 -98 -115 -100 -76 -65 -69 -55 -135 -159 -131 -29 -90 -165 -209 -208 -204 -179 -182 -151 -160 -169 -139 -54 -50 -30 -26 -278 -260 -243 -242 -219 -193 -184 -165 -153 -132 -115 -109 -88 -88 -74
-116 -64 -102 -75 -65 -87 -26 -142 -119 -100 -70 -19 -107 -4 -71 -29 -100 -161 -129 -167 -162 -180 -238 -230 -245 -207 -66 -62 -48 -372 -331 -288 -272 -223 -182 -209 -194 -145 -155 -120 -87 -98 -120 -80
-41 -73 -58 -58 -50 -114 -53 -101 -141 -135 -98 -64 -94 -31 -19 -81 -45 -35 -51 -88 -87 -105 -112 -112 -162 -184 -205 -155 -51 -56 -348 -358 -315 -256 -237 -192 -274 -156 -130 -134 -86 -71 -75 -134
-40 -53 -98 -73 -51 -123 -59 -0 -111 -126 -117 -39 -57 -66 -8 -26 -38 -15 -38 -53 -90 -111 -138 -158 -166 -207 -227 -191 -31 -33 -28 -385 -376 -295 -239 -154 -160 -174 -202 -130 -160 -129 -85 -59
-54 -0 -4 -152 -73 -28 -0 -0 -0 -0 -21 -12 -0 -115 -23 -74 -56 -107 -62 -44 -60 -136 -153 -162 -194 -201 -230 -228 -32 -23 -26 -392 -388 -348 -260 -177 -105 -83 -101 -127 -227 -134 -99 -80
-27 -0 -0 -3 -48 -31 -0 -0 -0 -0 -0 -0 -0 -28 -6 -128 -57 -15 -46 -117 -114 -137 -135 -146 -151 -159 -201 -277 -121 -71 -72 -87 -416 -379 -271 -146 -108 -112 -121 -179 -162 -71 -114 -60
-24 -0 -0 -0 -0 -0 -1 -0 -0 -0 -0 -0 -0 -0 -0 -156 -133 -207 -47 -143 -78 -135 -147 -158 -184 -164 -209 -238 -277 -331 -418 -458 -248 -171 -283 -210 -115 -87 -83 -89 -20 -12 -122 -106
-29 -26 -0 -0 -0 -0 -0 -0 -0 -0 -0 -0 -0 -0 -0 -35 -44 -112 -127 -92 -68 -165 -155 -160 -164 -213 -237 -262 -322 -326 -333 -263 -252 -209 -132 -106 -74 -50 -77 -50 -92 -96 -65 -36
-47 -43 -0 -0 -0 -0 -0 -0 -0 -0 -0 -0 -0 -0 -0 -0 -0 -0 -159 -120 -109 -177 -159 -138 -166 -225 -261 -275 -289 -284 -254 -206 -186 -182 -154 -130 -102 -110 -109 -80 -58 -38 -41 -34
-41 -15 -0 -0 -0 -0 -0 -0 -0 -0 -0 -0 -0 -0 -0 -0 -9 -4 -0 -2 -94 -315 -200 -188 -212 -224 -230 -249 -255 -208 -212 -182 -192 -225 -202 -151 -100 -74 -74 -91 -115 -39 -31 -15
-45 -51 -0 -0 -0 -0 -0 -0 -0 -0 -0 -0 -0 -0 -0 -0 -0 -0 -0 -0 -70 -397 -243 -229 -242 -198 -172 -183 -189 -177 -186 -164 -221 -290 -265 -224 -197 -147 -164 -124 -120 -108 -75 -43
-0 -0 -0 -0 -0 -0 -0 -0 -0 -0 -0 -0 -0 -0 -0 -0 -0 -0 -0 -424 -409 -353 -223 -184 -198 -205 -197 -200 -155 -152 -146 -159 -190 -216 -207 -187 -238 -220 -155 -114 -144 -136 -68 -59
-0 -0 -0 -0 -0 -0 -0 -0 -0 -0 -0 -0 -0 -0 -0 -0 -43 -0 -423 -405 -337 -299 -231 -180 -157 -145 -170 -175 -143 -148 -145 -147 -155 -155 -145 -149 -176 -196 -72 -113 -106 -46 -49 -54
-0 -0 -0 -0 -0 -0 -0 -0 -0 -0 -0 -0 -0 -0 -0 -0 -4 -373 -279 -228 -233 -192 -175 -166 -154 -138 -140 -121 -97 -107 -127 -130 -143 -142 -120 -150 -171 -128 -70 -43 -47 -15 -14 -6
-0 -0 -0 -0 -0 -0 -0 -0 -0 -0 -0 -0 -0 -0 -0 -73 -277 -212 -178 -161 -150 -141 -131 -122 -105 -82 -71 -59 -69 -74 -94 -131 -151 -140 -31 -14 -128 -107 -37 -27 -19 -11 -37 -1
-0 -0 -0 -0 -0 -0 -0 -0 -0 -0 -0 -0 -0 -295 -0 -0 -0 -0 -249 -136 -139 -140 -116 -101 -109 -80 -67 -54 -63 -110 -130 -149 -157 -132 -39 -14 -92 -89 -53 -6 -20 -0 -0 -1
-0 -0 -0 -0 -0 -0 -0 -0 -0 -405 -241 -0 -0 -345 -280 -312 -259 -84 -224 -252 -158 -140 -108 -92 -72 -75 -97 -83 -75 -135 -126 -148 -155 -124 -48 -16 -79 -84 -36 -20 -14 -1 -4 -6
-0 -0 -0 -0 -0 -0 -0 -0 -0 -0 -270 -0 -0 -0 -257 -216 -100 -76 -265 -161 -157 -158 -135 -111 -83 -148 -178 -167 -174 -157 -110 -135 -135 -114 -98 -23 -26 -100 -74 -10 -19 -11 -0 -0
-0 -0 -0 -0 -0 -0 -0 -0 -0 -0 -0 -0 -0 -0 -247 -154 -52 -253 -0 -24 -103 -118 -90 -90 -158 -185 -185 -148 -168 -146 -108 -119 -145 -107 -118 -40 -29 -37 -52 -15 -37 -12 -0 -0
-217 -179 -152 -0 -0 -0 -0 -0 -0 -0 -0 -0 -0 -0 -0 -228 -148 -199 -110 -32 -54 -117 -143 -131 -152 -138 -113 -126 -153 -132 -113 -118 -138 -125 -123 -105 -69 -40 -34 -26 -35 -64 -21 -0
-0 -0 -262 -0 -0 -0 -0 -0 -0 -0 -0 -0 -0 -0 -0 -0 -0 -10 -121 -110 -131 -168 -162 -173 -190 -175 -144 -153 -156 -140 -105 -90 -158 -128 -108 -87 -55 -34 -38 -48 -29 -66 -62 -61
-0 -0 -0 -0 -0 -0 -0 -0 -0 -0 -0 -0 -0 -0 -0 -0 -0 -14 -139 -134 -170 -176 -162 -157 -185 -146 -137 -124 -136 -151 -142 -109 -112 -79 -79 -74 -57 -58 -37 -52 -41 -49 -58 -40
-0 -0 -0 -0 -0 -0 -0 -0 -0 -0 -0 -0 -0 -0 -0 -0 -109 -148 -145 -139 -142 -158 -145 -236 -187 -104 -111 -99 -111 -112 -132 -106 -140 -10 -13 -15 -35 -76 -67 -35 -38 -18 -19 -21
-0 -0 -0 -0 -0 -0 -0 -0 -0 -0 -0 -0 -0 -47 -94 -117 -109 -125 -103 -103 -110 -136 -159 -184 -125 -98 -95 -89 -76 -74 -99 -113 -83 -46 -63 -255 -60 -44 -34 -28 -16 -83 -56 -94
Wind_Speed
4 7 7 nan nan nan nan 10 9 4 6 nan 14 21 17 13 13 11 14 16 15 17 17 16 16 19 22 21 21 21 22 20 17 15 18 17 15 9 10 13 18 17 16 17
nan 7 nan nan nan nan 8 13 10 9 9 14 16 19 18 15 17 19 20 21 23 24 23 21 22 23 24 25 24 24 27 26 22 17 17 19 17 16 15 12 15 19 20 18
nan 4 nan nan 7 6 5 6 3 5 7 9 18 16 13 9 11 9 14 14 17 22 20 20 19 19 18 22 22 22 25 25 24 24 20 20 19 18 19 22 23 22 18 18
8 nan nan nan 3 10 2 2 2 4 3 5 7 11 10 nan 8 9 9 10 13 14 14 13 13 17 20 23 21 23 22 23 23 25 24 28 25 24 25 22 23 26 26 22
12 7 4 1 nan 6 nan nan nan 4 9 4 4 5 3 nan 7 12 12 13 10 11 10 12 12 11 14 16 19 20 22 25 28 30 31 29 28 26 25 24 24 28 30 31
9 nan nan nan nan 7 nan nan nan 6 2 5 nan 3 3 5 5 12 12 9 12 9 8 6 6 8 11 13 16 16 19 22 25 28 31 30 30 31 29 31 29 27 29 32
nan nan nan nan nan nan nan nan nan nan nan nan nan 4 3 7 2 8 10 11 9 16 11 11 14 19 17 17 14 16 17 18 22 25 27 29 28 29 31 34 30 31 31 32
6 nan nan nan nan nan nan nan nan nan nan nan nan 7 10 10 nan 7 13 12 12 13 17 18 20 26 26 22 17 17 19 21 24 25 27 28 30 31 31 34 33 30 30 27
nan nan nan nan nan nan nan nan nan nan nan nan nan nan nan nan 13 15 18 20 18 20 20 23 25 31 32 27 28 28 28 26 27 28 29 30 31 33 33 36 37 33 32 31
7 nan nan nan nan nan nan nan nan nan nan nan nan nan nan nan nan 9 12 20 21 23 28 32 31 36 37 35 36 35 33 33 31 30 31 30 31 33 33 34 38 36 32 32
11 nan nan nan nan nan nan nan nan nan nan nan nan nan nan nan nan nan nan 13 18 26 32 35 36 38 40 40 43 41 37 38 37 35 34 34 34 35 35 35 35 34 29 30
12 nan nan nan nan nan nan nan nan nan nan nan nan nan nan nan nan nan nan nan 17 23 31 34 37 39 41 44 46 45 42 39 41 38 35 34 34 35 34 36 38 35 29 30
nan nan nan nan nan nan nan nan nan nan nan nan nan nan nan nan nan nan nan nan nan 29 35 36 37 38 40 44 47 46 44 43 42 41 38 38 36 34 35 36 38 38 32 33
nan nan nan nan nan nan nan nan nan nan nan nan nan nan nan nan nan nan nan nan 27 33 34 35 37 37 41 45 47 48 48 47 47 45 42 40 39 34 34 34 37 37 37 37
nan nan nan nan nan nan nan nan nan nan nan nan nan nan nan nan nan nan nan 28 33 38 38 39 39 40 44 46 49 50 50 50 48 45 43 41 40 37 33 37 37 38 38 36
nan nan nan nan nan nan nan nan nan nan nan nan nan nan nan nan nan nan 28 34 38 38 39 39 39 42 45 47 48 52 52 53 52 46 43 41 39 37 35 40 40 39 35 36
nan nan nan nan nan nan nan nan nan nan nan nan nan nan nan nan nan 26 28 33 34 35 38 39 41 43 46 48 51 52 54 57 56 49 44 41 37 34 33 36 37 37 33 35
nan nan nan nan nan nan nan nan nan nan nan nan nan nan nan nan nan nan 28 29 34 38 38 40 42 46 48 51 54 56 57 57 57 53 48 45 40 36 33 34 33 31 31 33
nan nan nan nan nan nan nan nan nan nan nan nan nan nan 31 31 30 24 35 38 35 38 40 43 47 50 50 50 51 53 52 53 53 50 47 43 40 37 34 32 32 30 29 30
nan nan nan nan nan nan nan nan nan nan nan nan nan nan nan 31 31 nan nan 40 41 43 45 46 48 50 51 46 49 47 41 41 42 44 43 42 36 33 30 28 32 30 25 24
nan nan nan nan nan nan nan nan nan nan nan nan nan nan nan 34 35 nan nan nan 48 49 47 49 52 51 46 43 43 36 36 37 40 42 43 41 37 32 27 26 25 22 25 27
nan nan nan nan nan nan nan nan nan nan nan nan nan nan nan nan 39 43 40 44 48 49 49 50 51 46 43 40 40 38 39 37 40 40 40 38 35 32 28 25 24 23 25 22
nan nan nan nan nan nan nan nan nan nan nan nan nan nan nan nan nan nan nan 47 48 nan 48 50 53 48 40 41 45 39 32 35 39 36 37 36 33 30 26 23 18 23 23 19
nan nan nan nan nan nan nan nan nan nan nan nan nan nan nan nan nan nan nan nan nan 43 44 42 38 34 33 31 31 29 31 32 38 30 28 34 31 28 25 21 17 17 17 18
nan nan nan nan nan nan nan nan nan nan nan nan nan nan nan nan nan nan nan 45 43 41 36 34 34 35 29 28 25 26 27 30 43 44 26 26 25 23 21 16 16 16 16 17
nan nan nan nan nan nan nan nan nan nan nan nan nan nan nan nan nan nan 41 41 42 40 41 33 31 30 29 27 25 23 29 31 35 42 37 49 22 18 18 15 14 15 17 nan
Wind_Direction
91 109 136 nan nan nan nan 111 129 112 89 nan 87 97 90 56 60 65 61 62 51 48 36 32 32 34 36 32 26 29 31 22 3 359 11 22 27 11 356 349 353 342 330 326
nan 91 nan nan nan nan 97 120 123 105 124 99 130 128 115 62 65 57 63 64 67 68 70 66 54 48 46 47 42 34 29 24 18 5 354 359 2 5 353 336 340 343 336 328
nan 89 nan nan 1 31 62 100 93 127 158 122 133 124 128 107 78 50 65 64 66 66 62 64 58 53 50 45 35 32 32 26 18 10 353 347 348 345 335 334 333 333 330 320
119 nan nan nan 44 359 124 94 99 73 79 150 150 133 118 nan 91 55 33 68 76 57 56 59 43 34 30 34 27 25 22 17 14 3 358 357 351 352 343 332 318 313 312 314
176 190 225 280 nan 22 nan nan nan 227 284 221 207 135 170 nan 38 46 29 16 45 56 65 47 35 22 24 17 15 11 6 9 5 357 359 353 360 355 346 335 321 308 305 304
149 nan nan nan nan 93 nan nan nan 231 4 201 nan 149 307 285 40 19 17 16 351 346 21 16 349 334 357 351 352 349 352 356 352 351 353 357 357 355 343 341 324 311 302 296
nan nan nan nan nan nan nan nan nan nan nan nan nan 359 233 318 340 28 20 10 2 296 307 309 313 313 314 317 311 315 338 350 343 347 347 351 355 350 350 341 328 316 305 297
168 nan nan nan nan nan nan nan nan nan nan nan nan 296 282 311 nan 3 5 353 338 296 297 299 301 299 296 291 297 318 330 333 335 339 342 340 347 343 344 336 331 316 308 302
nan nan nan nan nan nan nan nan nan nan nan nan nan nan nan nan 305 313 334 342 352 329 315 306 303 296 293 300 309 315 320 325 328 332 333 337 339 343 345 343 336 326 317 311
257 nan nan nan nan nan nan nan nan nan nan nan nan nan nan nan nan 275 336 1 356 324 316 311 305 298 297 298 301 301 307 309 313 317 321 322 327 333 341 340 340 335 328 328
264 nan nan nan nan nan nan nan nan nan nan nan nan nan nan nan nan nan nan 358 340 322 315 311 306 298 298 301 298 297 302 306 308 310 310 314 318 326 332 337 337 338 327 327
238 nan nan nan nan nan nan nan nan nan nan nan nan nan nan nan nan nan nan nan 333 315 312 310 307 301 301 300 297 299 303 306 306 306 305 308 313 317 325 330 330 331 323 323
nan nan nan nan nan nan nan nan nan nan nan nan nan nan nan nan nan nan nan nan nan 318 319 313 309 307 303 299 300 303 306 307 308 308 305 305 307 311 320 325 325 327 315 310
nan nan nan nan nan nan nan nan nan nan nan nan nan nan nan nan nan nan nan nan 325 323 318 313 307 303 300 299 302 304 306 309 309 307 305 304 304 305 312 317 320 324 304 298
nan nan nan nan nan nan nan nan nan nan nan nan nan nan nan nan nan nan nan 313 318 316 314 306 299 297 296 299 302 305 308 309 310 311 308 305 300 301 303 311 314 314 301 298
nan nan nan nan nan nan nan nan nan nan nan nan nan nan nan nan nan nan 311 312 313 310 304 300 298 297 300 304 306 307 311 313 313 312 306 300 295 294 296 307 310 312 301 301
nan nan nan nan nan nan nan nan nan nan nan nan nan nan nan nan nan 295 298 310 309 307 305 304 304 304 303 304 306 308 307 307 309 309 305 300 294 293 293 302 306 315 308 301
nan nan nan nan nan nan nan nan nan nan nan nan nan nan nan nan nan nan 302 303 312 310 309 306 303 301 301 302 304 304 306 307 310 311 309 303 301 299 292 296 298 305 302 298
nan nan nan nan nan nan nan nan nan nan nan nan nan nan 279 288 296 295 296 308 308 303 302 300 299 299 298 299 300 301 304 308 310 312 311 306 303 300 295 290 292 297 296 287
nan nan nan nan nan nan nan nan nan nan nan nan nan nan nan 293 298 nan nan 296 303 300 299 299 297 296 299 303 303 310 312 309 311 311 309 311 310 301 291 284 284 286 281 281
nan nan nan nan nan nan nan nan nan nan nan nan nan nan nan 302 298 nan nan nan 299 299 300 301 304 305 308 312 313 316 308 313 306 308 309 311 313 307 294 284 284 280 273 268
nan nan nan nan nan nan nan nan nan nan nan nan nan nan nan nan 308 311 307 304 299 298 300 302 303 304 309 311 309 310 309 307 304 304 304 308 310 304 293 287 285 284 271 269
nan nan nan nan nan nan nan nan nan nan nan nan nan nan nan nan nan nan nan 301 299 nan 303 305 307 306 303 299 302 307 317 310 311 312 311 307 309 304 295 291 293 277 268 265
nan nan nan nan nan nan nan nan nan nan nan nan nan nan nan nan nan nan nan nan nan 301 303 302 294 290 286 288 294 307 305 313 302 306 310 306 305 301 297 289 284 273 268 267
nan nan nan nan nan nan nan nan nan nan nan nan nan nan nan nan nan nan nan 301 302 301 301 301 297 283 294 288 291 293 298 305 306 318 301 285 284 289 288 282 273 263 268 276
nan nan nan nan nan nan nan nan nan nan nan nan nan nan nan nan nan nan 297 301 302 295 298 292 285 295 294 292 289 285 297 301 305 312 309 298 290 282 290 280 263 247 235 nan